SCP
4 3 2 2 1 1 1 1 1 1 1 1 1 1 0 0 0 0 0 0 0 0 0 0 0 0 0 0 0 0 0 0 0 0 0 0 0 0 0 0 0 0 0
4 3 2 2 1 1 1 1 1 1 1 1 0 0 0 0 0 0 0 0 0 0 0 0 0 0 0 0 0 0 0 0 0 0 0 0 0 0 0 0 0 0 0
3 3 2 1 1 1 1 1 0 0 0 0 0 0 0 0 0 0 0 0 0 0 0 0 0 0 0 0 0 0 0 0 0 0 0 0 0 0 0 0 0 0 0
3 2 2 1 1 1 0 0 0 0 0 0 0 0 0 0 0 0 0 0 0 0 0 0 0 0 0 0 0 0 0 0 0 0 0 0 0 0 0 0 0 0 0
2 2 1 1 1 0 0 0 0 0 0 0 0 0 0 0 0 0 0 0 0 0 0 0 0 0 0 0 0 0 0 0 0 0 0 0 0 0 0 0 0 0 0
1 1 1 0 0 0 0 0 0 0 0 0 0 0 0 0 0 0 0 0 0 0 0 0 0 0 0 0 0 0 0 0 0 0 0 0 0 0 0 0 0 0 0
1 1 0 0 0 0 0 0 0 0 0 0 0 0 0 0 0 0 0 0 0 0 0 0 0 0 0 0 0 0 0 0 0 0 0 0 0 0 0 0 0 0 0
0 0 0 0 0 0 0 0 0 0 0 0 0 0 0 0 0 0 0 0 0 0 0 0 0 0 0 0 0 0 0 0 0 0 0 0 0 0 0 0 0 0 0
0 0 0 0 0 0 0 0 0 0 0 0 0 0 0 0 0 0 0 0 0 0 0 0 0 0 0 0 0 0 0 0 0 0 0 0 0 0 0 0 0 0 0
0 0 0 0 0 0 0 0 0 0 0 0 0 0 0 0 0 0 0 0 0 0 0 0 0 0 0 0 0 0 0 0 0 0 0 0 0 0 0 0 0 0 0
0 0 0 0 0 0 0 0 0 0 0 0 0 0 0 0 0 0 0 0 0 0 0 0 0 0 0 0 0 0 0 0 0 0 0 0 0 0 0 0 0 0 0
0 0 0 0 0 0 0 0 0 0 0 0 0 0 0 0 0 0 0 0 0 0 0 0 0 0 0 0 0 0 0 0 0 0 0 0 0 0 0 0 0 0 0
0 0 0 0 0 0 0 0 0 0 0 0 0 0 0 0 0 0 0 0 0 0 0 0 0 0 0 0 0 0 0 0 0 0 0 0 0 0 0 0 0 0 0
0 0 0 0 0 0 0 0 0 0 0 0 0 0 0 0 0 0 0 0 0 0 0 0 0 0 0 0 0 0 0 0 0 0 0 0 0 0 0 0 0 0 0
0 0 0 0 0 0 0 0 0 0 0 0 0 0 0 0 0 0 0 0 0 0 0 0 0 0 0 0 0 0 0 0 0 0 0 0 0 0 0 0 0 0 0
0 0 0 0 0 0 0 0 0 0 0 0 0 0 0 0 0 0 0 0 0 0 0 0 0 0 0 0 0 0 0 0 0 0 0 0 0 0 0 0 0 0 0
0 0 0 0 0 0 0 0 0 0 0 0 0 0 0 0 0 0 0 0 0 0 0 0 0 0 0 0 0 0 0 0 0 0 0 0 0 0 0 0 0 0 0
0 0 0 0 0 0 0 0 0 0 0 0 0 0 0 0 0 0 0 0 0 0 0 0 0 0 0 0 0 0 0 0 0 0 0 0 0 0 0 0 0 0 0
0 0 0 0 0 0 0 0 0 0 0 0 0 0 0 0 0 0 0 0 0 0 0 0 0 0 0 0 0 0 0 0 0 0 0 0 0 0 0 0 0 0 0
0 0 0 0 0 0 0 0 0 0 0 0 0 0 0 0 0 0 0 0 0 0 0 0 0 0 0 0 0 0 0 0 0 0 0 0 0 0 0 0 0 0 0
0 0 0 0 0 0 0 0 0 0 0 0 0 0 0 0 0 0 0 0 0 0 0 0 0 0 0 0 0 0 0 0 0 0 0 0 0 0 0 0 0 0 0
0 0 0 0 0 0 0 0 0 0 0 0 0 0 0 0 0 0 0 0 0 0 0 0 0 0 0 0 0 0 0 0 0 0 0 0 0 0 0 0 0 0 0
0 0 0 0 0 0 0 0 0 0 0 0 0 0 0 0 0 0 0 0 0 0 0 0 0 0 0 0 0 0 0 0 0 0 0 0 0 0 0 0 0 0 0
0 0 0 0 0 0 0 0 0 0 0 0 0 0 0 0 0 0 0 0 0 0 0 0 0 0 0 0 0 0 0 0 0 0 0 0 0 0 0 0 0 0 0
0 0 0 0 0 0 0 0 0 0 0 0 0 0 0 0 0 0 0 0 0 0 0 0 0 0 0 0 0 0 0 0 0 0 0 0 0 0 0 0 0 0 0
0 0 0 0 0 0 -0 0 0 0 0 0 0 0 0 0 0 0 0 0 0 0 0 0 0 0 0 0 0 0 0 0 0 0 0 0 0 0 0 0 0 0 0
Wind_Speed
11 8 7 7 7 7 7 7 7 6 5 4 4 4 4 4 5 6 7 8 7 6 5 4 4 4 4 4 4 3 4 4 4 4 6 5 5 5 5 5 6 8 9
14 11 8 7 7 7 8 9 9 8 7 5 4 4 3 4 3 4 6 7 7 6 6 5 4 4 4 5 5 4 3 3 4 3 4 6 6 3 5 6 7 9 8
17 14 12 10 10 10 10 10 10 11 10 8 5 5 4 3 4 5 5 6 7 7 6 6 5 5 4 4 4 4 3 2 2 1 2 4 6 7 4 5 6 6 6
16 15 14 13 12 11 11 12 11 11 10 9 8 8 6 4 4 3 4 5 7 7 6 5 5 4 3 3 4 3 1 2 2 2 2 4 6 7 7 3 3 6 7
16 16 14 13 12 12 11 10 11 10 9 9 8 8 7 4 3 4 5 6 5 5 5 4 4 3 2 2 3 2 2 1 2 2 3 4 5 6 7 8 5 5 6
16 15 13 12 11 10 10 9 9 9 8 9 9 8 8 6 6 6 5 4 4 4 5 5 4 3 3 3 3 3 4 3 4 3 3 4 4 5 6 8 8 7 7
16 16 14 12 10 9 8 8 9 8 8 8 8 7 7 6 5 4 4 4 3 3 5 5 4 4 4 4 4 4 4 4 5 5 4 5 5 5 6 8 8 8 7
15 16 14 13 11 9 8 8 8 7 7 7 6 6 5 4 3 3 2 2 2 3 3 5 5 5 5 6 4 3 4 4 5 7 7 5 6 5 6 6 8 10 6
17 16 14 12 11 10 8 8 8 7 6 6 5 5 4 3 3 3 2 2 3 3 4 5 5 5 5 5 5 3 4 5 5 7 7 6 6 6 6 6 7 8 10
15 14 12 11 10 9 8 7 7 7 5 5 4 3 2 2 2 2 3 4 4 4 5 5 4 4 4 4 4 3 4 6 6 6 8 8 7 6 6 6 6 7 9
15 13 12 11 10 8 7 7 6 6 4 3 2 2 2 2 3 3 4 4 4 5 4 4 3 2 2 2 3 4 5 7 8 8 9 10 9 7 7 6 6 7 7
14 14 13 11 9 8 7 6 5 5 3 2 1 1 2 3 3 4 5 4 4 4 3 2 1 0 0 1 2 5 7 8 9 10 10 11 9 9 7 6 7 6 6
15 13 12 10 9 7 6 6 5 4 2 1 1 2 3 4 4 4 4 4 4 4 3 2 1 1 2 2 3 5 7 8 9 10 10 11 10 10 7 7 6 6 7
14 12 10 8 7 7 6 5 4 2 1 1 2 3 4 3 4 4 4 4 4 3 3 3 3 3 3 3 4 6 7 8 10 10 10 10 10 10 8 7 6 7 8
13 12 9 7 6 6 5 4 2 1 1 2 3 4 4 3 3 4 4 4 4 4 4 3 4 3 2 2 5 6 8 9 11 10 10 11 15 15 10 9 8 9 9
12 11 9 8 7 6 4 3 1 2 2 3 4 3 3 3 4 4 4 4 5 5 4 4 4 4 2 4 9 11 7 9 10 11 11 12 13 14 17 19 20 18 15
12 10 8 7 6 4 3 1 2 3 2 2 2 2 3 4 5 5 5 5 5 4 5 5 4 3 2 4 9 17 10 9 9 10 10 11 11 14 10 16 21 20 22
12 9 7 6 4 3 1 1 2 3 2 2 3 4 4 5 6 5 6 5 4 4 4 4 3 0 2 6 10 19 10 9 9 10 11 11 12 11 14 15 15 15 13
9 7 6 6 4 2 1 2 3 3 3 4 5 6 6 6 7 7 7 5 3 2 3 3 3 2 4 8 12 17 8 9 11 11 11 12 11 15 19 15 14 14 9
7 6 6 5 3 1 0 2 3 4 5 6 6 7 6 7 7 8 6 3 1 3 4 5 4 4 5 9 14 18 7 9 10 11 11 14 14 18 20 13 11 10 6
8 7 6 4 2 2 0 2 4 5 6 6 6 6 7 7 7 4 3 3 5 6 6 6 5 5 7 10 15 18 9 9 10 10 9 9 17 19 18 14 9 6 1
7 6 4 2 2 2 1 2 5 6 6 6 6 7 7 5 5 6 7 7 6 6 6 5 6 5 7 9 14 18 17 15 10 9 8 10 17 18 16 11 7 4 6
5 4 3 2 3 3 2 3 5 5 5 6 6 6 7 8 8 8 7 6 5 5 4 4 5 6 6 8 13 15 17 20 12 9 15 17 16 14 9 10 8 6 6
4 2 2 2 3 3 2 2 3 3 5 5 6 6 7 7 7 6 5 5 4 4 4 5 6 7 7 8 9 9 10 14 12 10 12 15 13 10 9 8 6 6 7
2 2 2 1 2 1 1 1 2 5 6 6 6 6 6 5 5 5 3 3 2 1 3 4 6 8 8 11 16 12 10 10 11 11 7 6 7 8 7 6 6 7 7
2 1 1 1 1 2 2 3 4 5 6 6 7 5 4 4 3 3 3 3 2 5 7 9 9 8 10 15 16 18 18 17 18 9 7 7 7 7 7 7 6 7 7
Wind_Direction
121 116 106 94 82 69 67 64 60 52 57 56 56 58 54 47 47 48 43 41 35 33 39 32 30 34 44 39 27 21 19 14 4 351 325 307 291 294 301 312 319 317 317
124 120 113 100 88 82 77 73 66 60 58 64 67 77 84 66 61 41 36 34 32 25 28 25 25 28 35 31 28 35 25 3 19 0 327 316 315 306 325 326 315 313 316
130 126 114 100 92 84 82 81 72 67 63 64 67 63 51 41 29 24 23 20 25 27 33 37 41 36 38 26 18 33 25 346 343 15 296 298 293 313 276 290 296 303 313
125 121 116 108 100 93 87 81 75 70 64 63 66 67 64 51 26 18 22 14 20 29 38 43 41 36 33 21 356 20 352 332 313 296 241 251 276 292 299 287 289 303 302
127 122 117 112 105 98 91 84 79 72 65 63 63 63 57 48 33 25 21 13 8 15 19 27 24 15 4 347 331 326 306 279 269 267 264 268 272 265 282 296 289 286 279
128 123 118 113 105 97 91 86 81 72 64 62 60 61 58 48 36 21 9 359 350 352 360 6 3 349 334 317 305 293 288 278 273 269 257 255 262 274 278 289 295 290 283
135 131 126 119 112 104 98 91 85 74 66 66 62 60 59 51 38 13 1 354 343 333 337 347 334 329 321 313 309 305 301 294 291 282 273 263 258 262 271 282 290 287 283
140 137 133 128 123 116 107 99 92 84 73 71 70 59 55 48 26 7 352 339 316 298 313 324 324 325 327 336 339 333 326 330 314 305 294 283 276 268 265 270 283 290 282
145 139 134 130 124 118 113 111 104 93 82 79 80 59 45 36 9 347 334 316 307 312 329 327 330 335 349 4 13 8 353 340 322 305 296 289 281 274 268 264 265 279 290
140 135 131 124 119 117 113 110 108 105 98 85 70 69 32 360 338 330 325 317 313 317 325 332 342 2 30 42 36 0 335 326 309 300 295 290 285 280 274 268 264 261 274
139 132 127 122 118 114 113 110 104 102 98 94 84 48 345 325 325 319 313 312 311 318 325 331 355 43 61 35 12 334 323 314 306 302 298 292 286 280 275 271 269 265 265
133 128 124 121 117 116 116 112 108 106 108 103 73 340 319 322 325 320 316 315 316 321 320 326 1 48 111 331 326 317 318 308 308 306 302 297 295 284 277 272 270 268 264
127 122 121 121 121 122 120 114 108 106 98 57 4 329 323 324 321 317 315 316 319 322 318 298 269 250 240 266 298 303 303 303 304 302 299 297 298 293 284 276 273 272 276
121 118 117 116 116 116 116 111 106 105 76 354 341 325 313 309 308 313 312 308 307 306 301 278 257 249 251 279 307 306 302 306 307 303 299 297 297 290 284 286 278 282 283
124 123 121 117 111 107 104 99 89 7 322 322 318 305 299 304 312 316 307 302 304 304 294 277 265 259 257 297 321 311 318 315 311 308 305 304 305 307 311 309 299 292 284
128 125 121 118 114 111 105 81 15 323 326 315 300 295 304 314 309 304 301 303 303 299 295 283 270 264 273 322 331 335 319 314 310 308 309 308 303 311 317 311 305 297 288
131 130 125 121 119 116 107 63 319 315 322 299 293 290 293 298 295 298 302 297 292 290 297 292 278 258 283 318 328 337 334 311 305 303 306 308 307 312 305 307 305 298 289
128 127 126 123 121 113 90 346 328 321 303 281 281 278 278 282 286 291 286 280 278 285 294 305 310 281 302 327 331 338 331 306 303 302 299 299 303 305 311 309 302 298 295
125 130 133 126 119 115 64 357 340 324 306 285 276 272 269 273 279 281 276 274 279 312 338 347 8 359 317 327 335 344 320 314 312 310 308 307 305 307 314 312 304 305 310
117 118 113 106 110 142 26 356 323 310 292 281 277 277 274 272 273 274 277 290 3 32 26 17 5 343 321 327 338 342 323 319 317 313 310 311 310 312 315 312 305 306 324
109 105 106 114 164 209 256 320 302 286 277 283 291 295 292 285 280 299 352 43 59 51 33 13 351 335 329 330 335 337 333 322 314 310 311 309 312 316 315 314 306 302 35
100 105 115 158 227 237 240 287 288 281 295 310 319 319 322 335 14 52 58 59 58 46 21 358 341 327 324 328 329 330 329 326 314 307 307 308 315 320 321 326 339 63 97
118 126 151 206 255 260 232 263 284 305 334 348 346 347 16 40 56 69 68 60 50 40 10 348 333 326 326 328 330 329 328 331 329 316 321 325 326 329 332 345 19 73 91
133 144 169 215 262 278 252 247 302 2 24 11 359 18 54 55 53 61 67 69 53 34 6 351 339 329 330 338 343 338 333 333 334 328 325 327 331 343 349 0 39 67 79
144 153 169 211 268 265 281 338 44 48 33 15 20 43 67 71 65 59 54 66 58 43 6 343 331 334 339 337 335 338 336 335 333 328 331 344 349 360 9 23 50 72 82
132 107 70 72 70 72 51 44 59 61 51 36 39 54 71 69 63 52 24 8 329 325 337 343 346 339 335 334 339 341 340 340 341 345 351 359 2 7 15 29 51 68 80